Location: Petruro
(41.0333°N, 14.7833°E)
Time: 09:47:29
(UTC+00:00)

DELTA 2 R/B (1) - Pass Details

Date: 27 October 2021
Orbit: 790 x 802 km, 39.6° (Epoch: 28 November)

Event Time Altitude Azimuth Distance (km) Brightness Sun altitude
Rises 18:15:51 0° 230° (SW) 3,292 7.4 -25.6°
Reaches altitude 10° 18:18:28 10° 223° (SW) 2,363 6.5 -26.1°
Enters shadow 18:22:33 36° 182° (S) 1,247 4.5 -26.9°
